Regional Weather Roundup
Issued by NWS Upton, NY

Current Version | Previous Version | Text Only | Print | Product List | Glossary On
Versions: 1 2 3 4 5 6 7 8 9 10 11 12 13 14 15 16 17 18 19 20 21 22 23 24 25 26 27 28 29 30 31 32 33 34 35 36 37 38 39 40 41 42 43 44 45 46 47 48 49 50
000
ASUS41 KOKX 300508
RWROKX

REGIONAL WEATHER ROUNDUP
NATIONAL WEATHER SERVICE NEW YORK NY
100 AM EDT SAT MAY 30 2015

NOTE: "FAIR" INDICATES FEW OR NO CLOUDS BELOW 12,000 FEET WITH NO
SIGNIFICANT WEATHER AND/OR OBSTRUCTIONS TO VISIBILITY.

NYZ071-072-176-178-NJZ106-104-300600-
NEW YORK CITY METRO AREA


CITY           SKY/WX    TMP DP  RH WIND       PRES   REMARKS
CENTRAL PARK   PTCLDY    67  61  81 CALM      30.25S
LAGUARDIA APRT MOCLDY    66  60  81 CALM      30.22S
KENNEDY INTL   MOCLDY    64  60  87 SE3       30.24S
NEWARK/LIBERTY MOCLDY    66  61  84 NE5       30.23R
BRNX BOT. GARD   N/A     64  61  88 S2        30.24R
TETERBORO      PTCLDY    68  59  73 SE3       30.21S
$$

NYZ177-179-078>081-300600-
LONG ISLAND NEW YORK

CITY           SKY/WX    TMP DP  RH WIND       PRES   REMARKS
FARMINGDALE    MOCLDY    62  59  90 CALM      30.23F
ISLIP          PTCLDY    61  59  93 S3        30.22S
SHIRLEY        CLOUDY    60  58  92 W3        30.24S FOG
WESTHAMPTON    FOG       58  58 100 CALM      30.24F VSB 1/4
MONTAUK POINT    N/A     59  57  93 CALM      30.24F
$$

NYZ052-065-067-300600-
HUDSON VALLEY

CITY           SKY/WX    TMP DP  RH WIND       PRES   REMARKS
WHITE PLAINS   PTCLDY    61  58  90 SE3       30.21F
NEWBURGH       CLEAR     66  59  77 CALM      30.22F
MONTGOMERY     MOCLDY    63  59  87 CALM      30.20F
POUGHKEEPSIE   PTCLDY    65  58  78 CALM      30.20F
ALBANY         PTCLDY    70  57  63 S13       30.16F
$$

NJZ001-105-106-008-010-013-015-019>022-104-300600-
NEW JERSEY

CITY           SKY/WX    TMP DP  RH WIND       PRES   REMARKS
NEWARK/LIBERTY MOCLDY    66  61  84 NE5       30.23R
TETERBORO      PTCLDY    68  59  73 SE3       30.21S
CALDWELL       PTCLDY    66  58  75 S3        30.22F
MORRISTOWN     PTCLDY    63  57  82 CALM      30.22F
SOMERVILLE     PTCLDY    65  58  78 CALM      30.19F
SUSSEX         MOCLDY    64  56  75 CALM      30.22F
ANDOVER          N/A     65  58  78 W3        30.21F
TRENTON        PTCLDY    67  61  81 S3        30.21S
MILLVILLE      MOCLDY    69  66  90 VRB5      30.21F
ATLANTIC CITY  MOCLDY    68  64  87 S7        30.21F
WRIGHTSTOWN    PTCLDY    64  64  97 S7        30.19F
TOMS RIVER     PTCLDY   N/A N/A N/A SE3       30.21F
BELMAR         PTCLDY    64  59  82 S5        30.22S
$$

PAZ047>061-062-071-300600-
EASTERN PENNSYLVANIA

CITY           SKY/WX    TMP DP  RH WIND       PRES   REMARKS
PHILADELPHIA   MOCLDY    71  63  75 S6        30.21F
ALLENTOWN      MOCLDY    73  65  75 S7        30.20F
SCRANTON       PTCLDY    71  62  73 VRB3      30.18F
$$

CTZ002-004>006-009-010-012-RIZ004-006-007-MAZ004-011-015-300600-
SOUTHERN NEW ENGLAND
 IN CT

CITY           SKY/WX    TMP DP  RH WIND       PRES   REMARKS
BRADLEY INTL   MOCLDY    64  57  78 S8        30.21F
HARTFORD       PTCLDY    62  58  86 CALM      30.22F
DANBURY        PTCLDY    60  55  83 CALM      30.23F
WTRBRY/OXFORD  PTCLDY    61  54  77 CALM      30.25F
BRIDGEPORT     PTCLDY    64  61  90 S5        30.23F
MERIDEN        CLEAR     57  54  89 CALM      30.22F
NEW HAVEN      PTCLDY    61  59  93 CALM      30.23F
CHESTER        FAIR      59  57  94 CALM      30.24F
GROTON         FOG       58  57  97 CALM      30.22F VSB 1/4
WILLIMANTIC    PTCLDY    59  55  87 CALM      30.23F

 IN RI

CITY           SKY/WX    TMP DP  RH WIND       PRES   REMARKS
PROVIDENCE     PTCLDY    59  57  93 S5        30.23F
BLOCK ISLAND   CLOUDY    57  55  94 SW6       30.24F VSB 1/4
WESTERLY       FOG       57  57 100 CALM      30.24F VSB 1/4

 IN MA

CITY           SKY/WX    TMP DP  RH WIND       PRES   REMARKS
BOSTON         PTCLDY    58  56  93 SE5       30.22F
WORCESTER      MOCLDY    61  54  77 SW8       30.23F
WESTFIELD      PTCLDY    63  56  78 S5        30.21F
PROVINCETOWN   MOCLDY    59  54  82 S3        30.24F
NANTUCKET      FOG       59  57  93 S7        30.24F VSB 1/4
$$

ANZ330-335-338-340-345-350-353-355-300600-
COASTAL MARINE OBSERVATIONS


STATION/POSITION TIME  SKY/WX   TEMP    WIND        PRES    VSBY  WAVE
                                AIR SEA DIR/SP/G                  HT/PER
                 (UTC)          (F)     (DEG/KT/KT) (MB)    (MI)  (FT/S)
NY HARB ENTRANCE 0450            63 61  190/  4/  4 1023.1          2/ 8
4S FIRE IS       0403               59                N/A           2/ 9
20S FIRE ISLAND  0450            61 59  200/  8/  8 1023.2          2/ 8
GREAT SOUTH BAY  0415            63 70  230/  4/  6   N/A
23SW MTP         0450            58 56  210/  4/  4 1023.6          2/ 9
HUDSON CANYON    NOT AVBL
KINGS POINT      0400            65 57  170/  2/  5 1023.0
CENTRAL LI SOUND 0400            59 60  170/  6/  6   N/A
EASTERN LI SOUND 0400            54        CALM       N/A
ROBBINS REEF     0400            64     170/  9/ 11 1022.2
$$


>>>>>>>>>>>>>>>>>>>>>>>>>>>> KEY <<<<<<<<<<<<<<<<<<<<<<<<<<<
>                                                          <
>     SKY/WX - SKY CONDITION/PRESENT WEATHER               <
>     TMP    - TEMPERATURE IN FAHRENHEIT                   <
>     DP     - DEWPOINT IN FAHRENHEIT                      <
>     RH     - RELATIVE HUMIDITY IN PERCENT                <
>     WIND   - DIRECTION AND SPEED IN MPH                  <
>     PRES   - MEAN SEA LEVEL PRESSURE IN INCHES OF HG     <
>     WCI    - WIND CHILL INDEX                            <
>     VSB    - VISIBILITY IN MILES                         <
>     HX     - HEAT INDEX                                  <
>     TC     - TEMPERATURE IN CELSIUS                      <
>     VRB    - VARIABLE WIND DIRECTION                     <
>                                                          <
>>>>>>>>>>>>>>>>>>>>>>>>>>>> KEY <<<<<<<<<<<<<<<<<<<<<<<<<<<





USA.gov is the U.S. government's official web portal to all federal, state and local government web resources and services.